KC6UTR Weather Reports


time (UTC)temp
C
wind
direction
speed
KPH
gust
KPH
rain 1hr
cm
rain 24hr
cm
rain mn
cm
humidity
%
barometer
mb
20260507085515 11 0.0 0.0 0.00 0.00 0.00 46 1019.1
20260507084535 12 0.0 0.0 0.00 0.00 0.00 45 1019.0
20260507083615 12 0.0 0.0 0.00 0.00 0.00 45 1019.0
20260507082515 12 0.0 0.0 0.00 0.00 0.00 45 1019.4
20260507081515 12 0.0 0.0 0.00 0.00 0.00 45 1019.4
20260507080515 12 0.0 0.0 0.00 0.00 0.00 45 1018.8
20260507075517 12 0.0 0.0 0.00 0.00 0.00 45 1018.7
20260507074517 12 0.0 0.0 0.00 0.00 0.00 44 1018.6
20260507073517 12 0.0 0.0 0.00 0.00 0.00 44 1018.9
20260507072517 12 0.0 0.0 0.00 0.00 0.00 44 1019.0
20260507071537 12 0.0 0.0 0.00 0.00 0.00 44 1018.9
20260507070537 12 0.0 0.0 0.00 0.00 0.00 44 1018.7
20260507065516 12 0.0 0.0 0.00 0.00 0.00 43 1018.6
20260507064516 12 0.0 0.0 0.00 0.00 0.00 43 1018.5
20260507063516 12 0.0 0.0 0.00 0.00 0.00 43 1018.2
20260507062516 13 0.0 0.0 0.00 0.00 0.00 42 1018.1
20260507061516 13 0.0 0.0 0.00 0.00 0.00 42 1018.1
20260507060536 13 0.0 0.0 0.00 0.00 0.00 41 1018.0
20260507055517 14 0.0 0.0 0.00 0.00 0.00 40 1018.0
20260507054536 14 0.0 0.0 0.00 0.00 0.00 39 1018.2
20260507053516 15 0.0 0.0 0.00 0.00 0.00 39 1017.9
20260507052516 15 0.0 0.0 0.00 0.00 0.00 37 1017.7
20260507051517 15 0.0 0.0 0.00 0.00 0.00 37 1017.9
20260507050516 15 0.0 0.0 0.00 0.00 0.00 36 1017.5
20260507045516 16 0.0 0.0 0.00 0.00 0.00 35 1017.7
20260507044537 16 0.0 0.0 0.00 0.00 0.00 33 1017.6
20260507043516 16 0.0 0.0 0.00 0.00 0.00 32 1017.3
20260507042516 17 0.0 0.0 0.00 0.00 0.00 33 1017.5
20260507041516 17 0.0 0.0 0.00 0.00 0.00 31 1017.3
20260507040516 17 0.0 0.0 0.00 0.00 0.00 30 1017.2
20260507035516 18 0.0 0.0 0.00 0.00 0.00 30 1017.4
20260507034516 18 0.0 0.0 0.00 0.00 0.00 29 1017.3
20260507033516 18 0.0 0.0 0.00 0.00 0.00 29 1016.8
20260507032516 18 0.0 0.0 0.00 0.00 0.00 29 1016.7
20260507031516 18 0.0 0.0 0.00 0.00 0.00 28 1016.6
20260507030516 19 0.0 0.0 0.00 0.03 0.00 27 1016.0
20260507025516 20 0.0 0.0 0.00 0.05 0.00 27 1015.9
20260507024516 20 0.0 3.2 0.00 0.15 0.00 26 1015.6
20260507023516 20 0.0 4.8 0.00 0.23 0.00 25 1015.1
20260507022516 21 203 1.6 3.2 0.00 0.25 0.00 25 1015.3
20260507021515 21 225 1.6 14.5 0.00 0.25 0.00 23 1015.1
20260507020516 22 225 1.6 12.9 0.00 0.25 0.00 22 1014.6
20260507015536 22 203 1.6 16.1 0.00 0.25 0.00 21 1014.8
20260507014515 23 225 3.2 16.1 0.00 0.25 0.00 21 1014.8
20260507013515 23 225 6.4 22.5 0.00 0.25 0.00 20 1014.3
20260507012535 24 203 1.6 8.0 0.00 0.25 0.00 19 1014.2
20260507011516 24 0.0 0.0 0.00 0.25 0.00 19 1014.2
20260507010516 24 248 3.2 11.3 0.00 0.25 0.00 18 1013.9
20260507005515 25 248 1.6 11.3 0.00 0.25 0.00 18 1014.1
20260507004516 25 0.0 3.2 0.00 0.25 0.00 18 1014.2
20260507003516 25 0.0 8.0 0.00 0.25 0.00 18 1014.2
20260507002515 25 248 1.6 12.9 0.00 0.25 0.00 18 1014.4
20260507001515 25 248 1.6 8.0 0.00 0.25 0.00 19 1014.1
20260507000515 25 180 1.6 8.0 0.00 0.25 0.00 19 1014.2
20260506235515 24 293 1.6 11.3 0.00 0.25 0.00 20 1014.2
20260506234515 25 248 1.6 11.3 0.00 0.25 0.00 19 1014.1
20260506233515 25 180 3.2 11.3 0.00 0.25 0.00 19 1014.4
20260506232515 24 0.0 3.2 0.00 0.25 0.00 20 1014.1
20260506231516 24 270 1.6 11.3 0.00 0.25 0.00 19 1014.4
20260506230535 24 0.0 3.2 0.00 0.25 0.00 19 1014.5
20260506225515 25 248 1.6 6.4 0.00 0.25 0.00 19 1014.4
20260506224515 24 225 1.6 20.9 0.00 0.25 0.00 20 1014.6
20260506223515 24 270 1.6 9.7 0.00 0.25 0.00 20 1014.7
20260506222515 24 338 1.6 9.7 0.00 0.25 0.00 20 1014.8
20260506221515 25 203 3.2 20.9 0.00 0.25 0.00 20 1015.0
20260506220517 23 0.0 9.7 0.00 0.25 0.00 20 1015.3
20260506215517 23 180 1.6 11.3 0.00 0.25 0.00 21 1015.5
20260506214517 23 0.0 1.6 0.00 0.25 0.00 21 1015.7
20260506213517 23 315 1.6 11.3 0.00 0.25 0.00 21 1015.7
20260506212517 23 180 3.2 16.1 0.00 0.25 0.00 22 1016.0
20260506211517 22 0.0 6.4 0.00 0.25 0.00 22 1015.8
20260506210517 22 315 3.2 22.5 0.00 0.25 0.00 22 1015.9
20260506205517 22 293 4.8 20.9 0.00 0.25 0.00 23 1016.1
20260506204517 22 248 1.6 14.5 0.00 0.25 0.00 24 1016.3
20260506203637 22 293 1.6 9.7 0.00 0.25 0.00 24 1016.5
20260506202517 22 270 1.6 17.7 0.00 0.25 0.00 23 1016.4
20260506201517 22 225 1.6 11.3 0.00 0.25 0.00 23 1016.8
20260506200515 22 180 1.6 4.8 0.00 0.25 0.00 24 1016.6
20260506195517 22 180 6.4 19.3 0.00 0.25 0.00 24 1016.8
20260506194517 21 203 1.6 6.4 0.00 0.25 0.00 26 1016.9
20260506193537 20 225 1.6 12.9 0.00 0.25 0.00 26 1016.8
20260506192517 20 248 4.8 19.3 0.00 0.25 0.00 27 1016.8
20260506191557 20 248 1.6 12.9 0.00 0.25 0.00 27 1016.9
20260506190517 20 225 1.6 3.2 0.00 0.25 0.00 28 1017.6
20260506185517 20 225 1.6 12.9 0.00 0.25 0.00 28 1017.4
20260506184517 20 0.0 3.2 0.00 0.25 0.00 28 1017.4
20260506183517 20 203 3.2 11.3 0.00 0.25 0.00 29 1017.6
20260506182517 18 0.0 1.6 0.00 0.25 0.00 31 1017.4
20260506181517 18 0.0 4.8 0.00 0.25 0.00 31 1017.5
20260506180516 18 0.0 3.2 0.00 0.25 0.00 31 1017.5
20260506175516 18 248 1.6 8.0 0.00 0.25 0.00 31 1017.6
20260506174516 17 225 1.6 12.9 0.00 0.25 0.00 32 1017.6
20260506173516 17 0.0 0.0 0.00 0.25 0.00 32 1017.6
20260506172517 17 248 1.6 6.4 0.00 0.25 0.00 34 1017.8
20260506171517 17 270 1.6 14.5 0.00 0.25 0.00 34 1017.7
20260506170517 16 248 1.6 12.9 0.00 0.25 0.00 34 1017.7
20260506165517 17 0.0 1.6 0.00 0.25 0.00 33 1017.8
20260506164516 17 0.0 4.8 0.00 0.25 0.00 36 1017.7
20260506163537 16 0.0 4.8 0.00 0.25 0.00 37 1017.4
20260506162517 16 0.0 3.2 0.00 0.25 0.00 38 1017.5
20260506161537 15 0.0 0.0 0.00 0.25 0.00 39 1017.5
20260506160516 15 0.0 0.0 0.00 0.25 0.00 40 1017.1
20260506155517 15 0.0 0.0 0.00 0.25 0.00 41 1017.2
20260506154516 15 0.0 0.0 0.00 0.25 0.00 40 1017.1
20260506153557 15 0.0 0.0 0.00 0.25 0.00 40 1017.6
20260506152536 14 0.0 0.0 0.00 0.25 0.00 41 1017.1
20260506151516 13 0.0 0.0 0.00 0.25 0.00 44 1017.1
20260506150536 13 0.0 0.0 0.00 0.25 0.00 45 1016.8
20260506145516 12 0.0 1.6 0.00 0.25 0.00 50 1017.1
20260506144536 12 0.0 6.4 0.00 0.25 0.00 50 1016.8
20260506143516 11 0.0 0.0 0.00 0.25 0.00 51 1016.7
20260506142516 11 0.0 0.0 0.00 0.25 0.00 56 1017.0
20260506141516 10 0.0 0.0 0.00 0.25 0.00 56 1016.7
20260506140516 10 0.0 0.0 0.00 0.25 0.00 58 1016.6
20260506135516 10 0.0 0.0 0.00 0.25 0.00 59 1016.5
20260506134516 9 0.0 0.0 0.00 0.25 0.00 61 1016.2
20260506133516 8 0.0 0.0 0.00 0.25 0.00 64 1015.9
20260506132516 7 0.0 0.0 0.00 0.25 0.00 67 1015.6
20260506131516 6 0.0 0.0 0.00 0.25 0.00 71 1015.2
20260506130516 6 0.0 0.0 0.00 0.25 0.00 74 1015.0
20260506125516 5 0.0 0.0 0.00 0.25 0.00 75 1014.9
20260506124516 5 0.0 0.0 0.00 0.25 0.00 75 1014.5
20260506123516 5 0.0 0.0 0.00 0.25 0.00 75 1014.3
20260506122516 5 0.0 0.0 0.00 0.25 0.00 77 1014.3
20260506121516 5 0.0 0.0 0.00 0.25 0.00 76 1014.4
20260506120516 5 0.0 0.0 0.00 0.25 0.00 76 1014.3
20260506115536 5 0.0 0.0 0.00 0.25 0.00 75 1014.8
20260506114516 5 0.0 0.0 0.00 0.25 0.00 74 1014.8
20260506113516 5 0.0 0.0 0.00 0.25 0.00 75 1014.9
20260506112516 5 0.0 0.0 0.00 0.25 0.00 76 1014.7
20260506111516 5 0.0 0.0 0.00 0.25 0.00 75 1014.5
20260506110516 5 0.0 0.0 0.00 0.25 0.00 77 1014.3
20260506105516 5 0.0 0.0 0.00 0.25 0.00 76 1014.2
20260506104516 5 0.0 0.0 0.00 0.25 0.00 75 1014.2
20260506103516 6 0.0 0.0 0.00 0.25 0.00 76 1014.1
20260506102516 6 0.0 1.6 0.00 0.25 0.00 75 1014.7
20260506101516 6 0.0 0.0 0.00 0.25 0.00 75 1014.6
20260506100535 6 0.0 1.6 0.00 0.25 0.00 76 1014.5
20260506095516 6 0.0 0.0 0.00 0.25 0.00 76 1014.4
20260506094516 6 0.0 3.2 0.00 0.25 0.00 77 1014.3
20260506093516 6 0.0 0.0 0.00 0.25 0.00 75 1014.5
20260506092535 6 0.0 0.0 0.00 0.25 0.00 74 1014.5
20260506091515 6 0.0 0.0 0.00 0.25 0.00 74 1014.3
20260506090516 6 0.0 0.0 0.00 0.25 0.00 77 1014.2